Voltar ao catálogo

SHIYAN 20A DEB

AtivoLEO
NORAD 55716·DEBRIS·🇨🇳 China

Lançado Dec 12, 2022 de Jiuquan Satellite Launch Center

Loading…

Próximas Passagens (próximas 24 horas)

TLE

AtualizadoSource: Space-Track

Época: Sep 14, 2026, 08:33 UTC

1 55716U 22169E   26257.35638153  .00000437  00000-0  20920-3 0  9990
2 55716  59.9952 292.2768 0004843 354.4211   5.6771 14.33027257185756

Acompanhe SHIYAN 20A DEB em tempo real com AllMySat

Download on the App Store